Debrecen, Hungary

10:18 AM CEST on June 22, 2018 (GMT +0200)
Debrecen

Weather History for LHDC - September, 2017

Change the Weather History Date:

Thursday, September 14, 2017

  Actual Average (WUND) Record (WUND)
Temperature  
Mean Temperature 68 °F -  
Max Temperature 80 °F 67 °F - (-1)
Min Temperature 55 °F 47 °F - (-1)
Cooling Degree Days 2    
Growing Degree Days 18 (Base 50)    
Moisture  
Dew Point 49 °F    
Average Humidity 47    
Maximum Humidity 77    
Minimum Humidity 20    
Precipitation  
Precipitation 0.00 in 0.05 in - ()
Sea Level Pressure  
Sea Level Pressure 29.88 in    
Wind  
Wind Speed 12 mph ()    
Max Wind Speed 23 mph    
Max Gust Speed 32 mph    
Visibility 19.0 miles    
Events Rain    
Averages and records for this station are not official NWS values.
T = Trace of Precipitation, MM = Missing Value Source: Averaged Metar Reports

Daily Weather History Graph

Daily Weather History Graph

Search for Another Location

Airport or City:

Astronomy

Sep. 14, 2017 Rise Set
Actual Time 6:09 AM CEST 6:47 PM CEST
Civil Twilight 5:38 AM CEST 7:18 PM CEST
Nautical Twilight 5:01 AM CEST 7:55 PM CEST
Astronomical Twilight 4:23 AM CEST 8:33 PM CEST
Moon No Moon Rise 3:05 PM CEST (9/14)
Length of Visible Light 13h 40m
Length of Day
12h 38m
Last Quarter, 37% of the Moon is Illuminated
Sep 14
Last Quarter
Sep 20
New
Sep 28
First Quarter
Oct 5
Full
Oct 12
Last Quarter

Hourly Weather History & Observations

Time (CEST) Temp. Dew Point Humidity Pressure Visibility Wind Dir Wind Speed Gust Speed Precip Events Conditions
12:00 AM 58 °F 47 °F 58% 30.00 in 19 mi South 8.9 mph - -   Partly Cloudy
12:15 AM 57.2 °F 46.4 °F 67% 30.01 in - South 5.8 mph - N/A   Clear
1:00 AM 56 °F 47 °F 63% 30.02 in - South 4.5 mph - -  
3:00 AM 56 °F 49 °F 69% 30.01 in - South 8.9 mph - -  
4:00 AM 56 °F 49 °F 71% 29.99 in - South 11.2 mph - -  
5:00 AM 56 °F 49 °F 71% 29.99 in - South 11.2 mph - -  
5:15 AM 57.2 °F 50.0 °F 77% 29.98 in - South 11.5 mph - N/A   Clear
5:45 AM 57.2 °F 50.0 °F 77% 29.98 in - South 10.4 mph - N/A   Clear
6:00 AM 56 °F 49 °F 71% 29.98 in 19 mi South 8.9 mph - -   Partly Cloudy
6:15 AM 57.2 °F 50.0 °F 77% 29.98 in - South 9.2 mph - N/A   Clear
6:45 AM 57.2 °F 50.0 °F 77% 29.98 in - South 10.4 mph - N/A   Clear
7:00 AM 57 °F 49 °F 68% 29.98 in 22 mi South 8.9 mph - -   Partly Cloudy
7:15 AM 59.0 °F 50.0 °F 72% 29.98 in - South 10.4 mph - N/A   Clear
7:45 AM 60.8 °F 50.0 °F 68% 29.98 in - South 13.8 mph - N/A   Clear
8:00 AM 60 °F 50 °F 61% 29.97 in 22 mi South 13.4 mph - -   Partly Cloudy
8:15 AM 62.6 °F 51.8 °F 68% 29.95 in - South 16.1 mph - N/A   Clear
8:45 AM 66.2 °F 51.8 °F 60% 29.95 in - South 17.3 mph - N/A   Clear
9:00 AM 65 °F 52 °F 52% 29.95 in 22 mi South 17.9 mph - -   Partly Cloudy
9:15 AM 68.0 °F 51.8 °F 56% 29.95 in - South 18.4 mph - N/A   Clear
9:45 AM 69.8 °F 53.6 °F 56% 29.95 in - South 16.1 mph - N/A   Clear
10:15 AM 71.6 °F 53.6 °F 53% 29.95 in - South 18.4 mph - N/A   Clear
10:45 AM 73.4 °F 53.6 °F 50% 29.95 in - SSW 18.4 mph - N/A   Clear
10:55 AM 73.4 °F 53.6 °F 50% 29.95 in - South 18.4 mph - N/A   Unknown
11:00 AM 73 °F 53 °F 39% 29.93 in 22 mi SSW 17.9 mph - -   Partly Cloudy
11:15 AM 75.2 °F 51.8 °F 44% 29.92 in - South 18.4 mph - N/A   Clear
11:45 AM 75.2 °F 51.8 °F 44% 29.92 in - South 17.3 mph - N/A   Clear
12:00 PM 76 °F 51 °F 31% 29.90 in 22 mi South 17.9 mph - -   Partly Cloudy
12:15 PM 77.0 °F 50.0 °F 39% 29.92 in - South 19.6 mph - N/A   Clear
12:45 PM 78.8 °F 50.0 °F 36% 29.89 in - SSW 19.6 mph - N/A   Clear
1:00 PM 78 °F 50 °F 26% 29.88 in 22 mi SSW 17.9 mph - -   Partly Cloudy
1:15 PM 78.8 °F 50.0 °F 36% 29.89 in - SSW 19.6 mph - N/A   Clear
1:45 PM 78.8 °F 50.0 °F 36% 29.86 in - SSW 21.9 mph - N/A   Clear
2:15 PM 78.8 °F 48.2 °F 34% 29.86 in - SSW 20.7 mph - N/A   Clear
2:45 PM 80.6 °F 46.4 °F 30% 29.83 in - SSW 20.7 mph - N/A   Clear
3:00 PM 80 °F 47 °F 21% 29.81 in 22 mi SSW 20.1 mph - -   Partly Cloudy
3:15 PM 80.6 °F 48.2 °F 32% 29.83 in - South 18.4 mph - N/A   Clear
3:45 PM 80.6 °F 46.4 °F 30% 29.80 in - South 23.0 mph - N/A   Clear
4:00 PM 80 °F 47 °F 21% 29.79 in 22 mi South 22.4 mph - -   Partly Cloudy
4:15 PM - - N/A% - - SSW 20.7 mph 32.2 mph N/A Rain Light Rain
4:45 PM 80.6 °F 46.4 °F 30% 29.77 in - South 21.9 mph - N/A   Clear
5:00 PM 80 °F 46 °F 20% 29.76 in 25 mi South 20.1 mph - -   Partly Cloudy
5:15 PM 80.6 °F 46.4 °F 30% 29.77 in - South 19.6 mph - N/A   Clear
5:45 PM 78.8 °F 46.4 °F 32% 29.77 in - South 16.1 mph - N/A   Clear
6:00 PM 79 °F 47 °F 22% 29.75 in 25 mi South 15.7 mph - -   Partly Cloudy
6:15 PM 78.8 °F 48.2 °F 34% 29.77 in - South 12.7 mph - N/A   Clear
6:45 PM 75.2 °F 46.4 °F 36% 29.77 in - South 9.2 mph - N/A   Clear
7:00 PM 75 °F 47 °F 26% 29.75 in 25 mi South 8.9 mph - -   Partly Cloudy
7:15 PM 73.4 °F 46.4 °F 38% 29.77 in - South 9.2 mph - N/A   Clear
7:45 PM 69.8 °F 48.2 °F 46% 29.77 in - South 8.1 mph - N/A   Clear
8:00 PM 70 °F 48 °F 34% 29.77 in 19 mi South 6.7 mph - -   Partly Cloudy
8:15 PM 68.0 °F 48.2 °F 49% 29.80 in - SW 6.9 mph - N/A   Clear
8:45 PM 68.0 °F 48.2 °F 49% 29.80 in - South 6.9 mph - N/A   Clear
9:00 PM 67 °F 48 °F 40% 29.78 in 19 mi South 6.7 mph - -   Partly Cloudy
9:15 PM 69.8 °F 48.2 °F 46% 29.77 in - South 8.1 mph - N/A   Clear
9:45 PM 69.8 °F 48.2 °F 46% 29.77 in - South 9.2 mph - N/A   Clear
10:00 PM 70 °F 48 °F 35% 29.77 in 19 mi South 8.9 mph - -   Partly Cloudy
10:15 PM - - N/A% - - SSW 13.8 mph - N/A Rain Light Rain Showers
10:45 PM 69.8 °F 48.2 °F 46% 29.77 in - SSW 10.4 mph - N/A   Clear
10:58 PM 71.6 °F 53.6 °F 53% 29.80 in - SW 13.8 mph 32.2 mph N/A   Unknown
11:15 PM 68.0 °F 48.2 °F 49% 29.80 in - West 17.3 mph - N/A   Clear
11:45 PM 66.2 °F 46.4 °F 49% 29.80 in - West 15.0 mph - N/A   Clear